Weather in Borogontsy

Russia / Sakha (Yakutia) Republic     62°40′16″N   131°10′08″E
temp.,
°C
wind,
m/s
gust,
m/s
humid.,
%
clouds,
%
prec.,
mm/h
press.,
hPa
HPBL,
m
6 august, fri
fri600:00+14ene311400 0.0 1005206
03:00+12ne310460 0.0 1005179
06:00+14ne310470 0.0 1005256
09:00+20ene46320 0.0 1005637
12:00+25e45323 0.0 10051283
15:00+28se572148 0.0 10052710
18:00+26se492836 0.0 10072241
21:00+17ese3749100 0.0 1009120
7 august, sat
sat700:00+16ese41349100 0.0 1011324
03:00+17ese5134573 0.0 1013770
06:00+17ese61347100 0.0 1015952
09:00+20se71440100 0.0 10171248
12:00+23se7112867 0.0 10181742
15:00+24se7112218 0.0 10172015
18:00+23se510280 0.0 10181832
21:00+18ese412380 0.0 1019563
8 august, sun
sun800:00+15ese412480 0.0 1020463
03:00+13ese413582 0.0 1021478
06:00+13ese5125888 0.0 1021603
09:00+19se693311 0.0 10201069
12:00+23se692248 0.0 10191512
15:00+24se5719100 0.0 10171715
18:00+23se4726100 0.0 10171498
21:00+16se3642100 0.0 1017106
9 august, mon
mon900:00+14ese2647100 0.0 101798
03:00+11ese3855100 0.0 1017143
06:00+13ese31053100 0.0 1017256
09:00+19se49367 0.0 1016660
12:00+25se58210 0.0 10141545
15:00+27se57175 0.0 10121848
18:00+26se472377 0.0 10121216
21:00+18se31040100 0.0 1013185
10 august, tue
tue1000:00+15se3944100 0.0 1014152
03:00+13se3851100 0.0 1014144
06:00+14se395374 0.0 1014215
09:00+21se3537100 0.0 1013514
12:00+25sse3435100 0.0 10121100
15:00+25ssw3547100 0.0 10121537
18:00+24sw255927 0.1 1012682
21:00+20s2778100 0.3 1012172